Printer-friendly version
Follow the MPC on Twitter Follow the MPC on Facebook The MPC blog
Minor Planet Center

MPEC 2008-U101: 2008 UT95

The following Minor Planet Electronic Circular may be linked-to from your own Web pages, but must not otherwise be redistributed electronically.

A form allowing access to any MPEC is at the bottom of this page.


Read MPEC 2008-U100 Read MPEC 2008-U102


M.P.E.C. 2008-U101                               Issued 2008 Oct. 30, 23:56 UT

     The Minor Planet Electronic Circulars contain information on unusual
         minor planets and routine data on comets.  They are published
   on behalf of Commission 20 of the International Astronomical Union by the
          Minor Planet Center, Smithsonian Astrophysical Observatory,
                          Cambridge, MA 02138, U.S.A.

             Prepared using the Tamkin Foundation Computer Network

                              MPC@CFA.HARVARD.EDU
          URL http://www.cfa.harvard.edu/iau/mpc.html  ISSN 1523-6714

                                   2008 UT95

Observations:
     K08U95T* C2008 10 30.37815 02 08 22.30 +21 29 09.3          19.8 V EU101G96
     K08U95T  C2008 10 30.38590 02 08 27.38 +21 29 28.4          19.9 V EU101G96
     K08U95T  C2008 10 30.39362 02 08 32.46 +21 29 47.1          19.9 V EU101G96
     K08U95T  C2008 10 30.40143 02 08 37.64 +21 30 06.0          20.0 V EU101G96
     K08U95T  C2008 10 30.42260 02 08 51.45 +21 30 42.3          19.4 R EU101H01
     K08U95T  C2008 10 30.42346 02 08 52.06 +21 30 44.2          19.4 R EU101H01
     K08U95T  C2008 10 30.42498 02 08 53.11 +21 30 48.0          19.4 R EU101H01
     K08U95T  C2008 10 30.42664 02 08 54.29 +21 30 51.8          19.3 R EU101H01
     K08U95T  C2008 10 30.42772 02 08 55.04 +21 30 54.3          19.4 R EU101H01
     K08U95T  C2008 10 30.43274 02 08 59.17 +21 31 20.1          19.7 V EU101G96
     K08U95T  C2008 10 30.43966 02 09 04.03 +21 31 35.7          20.0 V EU101G96
     K08U95T  C2008 10 30.44650 02 09 08.92 +21 31 52.0          19.8 V EU101G96
     K08U95T  C2008 10 30.45337 02 09 13.86 +21 32 07.9          19.9 V EU101G96
     K08U95T  C2008 10 30.83491 02 15 41.85 +21 51 16.4                 EU101J95
     K08U95T  C2008 10 30.84512 02 15 52.21 +21 51 59.5                 EU101J95
     K08U95T  C2008 10 30.85521 02 16 02.39 +21 52 41.3          19.0 R EU101J95

Observer details:
G96 Mt. Lemmon Survey.  Observer E. Beshore.  Measurers E. C. Beshore,
    A. Boattini, G. J. Garradd, A. R. Gibbs, A. D. Grauer, R. E. Hill,
    R. A. Kowalski, S. M. Larson, R. H. McNaught.  1.5-m reflector + CCD.
H01 Magdalena Ridge Observatory, Socorro.  Observer W. H. Ryan.  2.4-m f/8.9
    reflector + CCD.
J95 Great Shefford.  Observer P. Birtwhistle.  0.40-m f/6.0 Schmidt-Cassegrain
    + CCD.

Orbital elements:
2008 UT95                                                Earth MOID = 0.0004 AU
Epoch 2008 Nov. 30.0 TT = JDT 2454800.5                 MPC
M 353.52952              (2000.0)            P               Q
n   0.39832981     Peri.  247.47769     -0.30075157     -0.95272582
a   1.8293951      Node   220.10537     +0.89777408     -0.26755797
e   0.5792583      Incl.    3.84080     +0.32179215     -0.14396614
P   2.47           H   27.3           G   0.15           U   8
Residuals in seconds of arc
081030 G96  0.3-  0.4-    081030 H01  0.3-  0.3+    081030 G96  0.3-  0.1-
081030 G96  0.2+  0.1-    081030 H01  0.1-  0.2+    081030 J95  0.2-  0.3-
081030 G96  0.2+  0.1-    081030 H01  0.3-  0.2+    081030 J95  0.4+  0.3+
081030 G96  0.0   0.1+    081030 G96  0.7+  0.1+    081030 J95  0.2-  0.0
081030 H01  0.2-  0.2+    081030 G96  0.2+  0.4-
081030 H01  0.1-  0.0     081030 G96  0.2+  0.0

Ephemeris:
2008 UT95                a,e,i = 1.83, 0.58, 4                   q = 0.7697
Date    TT    R. A. (2000) Decl.     Delta      r     Elong.  Phase     V
2008 10 31.0  02 18.58   +22 06.2    0.0198   1.012   172.0     7.9    19.4
2008 11 01.0  02 53.71   +23 50.6    0.0117   1.004   168.5    11.4    18.3

2008 11 01.1  03 00.19   +24 06.3    0.0109   1.003   167.5    12.4    18.2
2008 11 01.2  03 07.76   +24 23.3    0.0101   1.002   166.1    13.7    18.1
2008 11 01.3  03 16.58   +24 41.3    0.00936  1.001   164.5    15.3    18.0
2008 11 01.4  03 26.99   +24 59.9    0.00860  1.001   162.5    17.3    17.9
2008 11 01.5  03 39.43   +25 18.4    0.00786  1.000   160.1    19.8    17.8
2008 11 01.6  03 54.47   +25 35.5    0.00714  0.999   157.0    22.8    17.7
2008 11 01.7  04 12.83   +25 48.4    0.00646  0.998   153.2    26.7    17.5
2008 11 01.8  04 35.49   +25 52.5    0.00582  0.997   148.4    31.4    17.5
2008 11 01.9  05 03.54   +25 39.2    0.00523  0.996   142.3    37.5    17.4
2008 11 02.0  05 37.83   +24 55.4    0.00472  0.996   134.8    45.0    17.4
2008 11 02.1  06 18.64   +23 23.8    0.00432  0.995   125.6    54.2    17.4
2008 11 02.2  07 04.78   +20 48.6    0.00405  0.994   114.9    64.9    17.6
2008 11 02.3  07 53.19   +17 08.4    0.00396  0.993   103.1    76.7    17.9
2008 11 02.4  08 39.81   +12 45.4    0.00404  0.992    91.2    88.5    18.4
2008 11 02.5  09 21.33   +08 16.3    0.00428  0.991    80.3    99.5    19.0
2008 11 02.6  09 56.37   +04 11.2    0.00467  0.991    70.9   108.9    19.7
2008 11 02.7  10 25.06   +00 43.8    0.00517  0.990    63.1   116.6    20.4
2008 11 02.8  10 48.32   -02 05.3    0.00575  0.989    56.8   122.9    21.1
2008 11 02.9  11 07.19   -04 21.2    0.00638  0.988    51.7   128.0    21.8
2008 11 03.0  11 22.61   -06 10.4    0.00706  0.987    47.7   132.0    22.4

Timothy B. Spahr             (C) Copyright 2008 MPC           M.P.E.C. 2008-U101

Read MPEC 2008-U100 Read MPEC 2008-U102


MPEC number:

Enter an MPEC number in one of the following forms:

  • 1997-B01 (the full form)
  • J97B01 (the packed version of the full form)
  • B01 (the abbreviated form)

Valid HTML 4.01!